TRA98T LOWI-EHAM

Flight info

Callsign TRA98T
Flight time 1h 19m
Altitude 36000
Route KPT L608 LIRSU DCT BUB Y28 HELEN
Aircraft A21N/M-SDE3FGHIRWY/LB1

Departure

Time 2026-05-05 18:18
Airport Innsbruck Airport (LOWI)

Arrival

Time 2026-05-05 19:37
Airport Amsterdam Airport Schiphol (EHAM)
Time Latitude Longitude Altitude Speed Heading
2026-05-05 17:32 47.25814 11.34991 1907 ft 0 kts 171°
2026-05-05 18:08 47.25828 11.34988 1877 ft 4 kts 171°
2026-05-05 18:08 47.25850 11.34984 1877 ft 4 kts 188°
2026-05-05 18:08 47.25870 11.35000 1892 ft 4 kts 246°
2026-05-05 18:08 47.25874 11.35020 1907 ft 0 kts 261°
2026-05-05 18:11 47.25873 11.35010 1907 ft 2 kts 261°
2026-05-05 18:12 47.25871 11.34988 1902 ft 3 kts 261°
2026-05-05 18:12 47.25867 11.34955 1902 ft 4 kts 261°
2026-05-05 18:12 47.25862 11.34908 1900 ft 5 kts 261°
2026-05-05 18:12 47.25855 11.34839 1907 ft 9 kts 261°
2026-05-05 18:13 47.25843 11.34729 1900 ft 11 kts 261°
2026-05-05 18:13 47.25830 11.34614 1907 ft 11 kts 261°
2026-05-05 18:13 47.25818 11.34499 1902 ft 11 kts 261°
2026-05-05 18:13 47.25805 11.34382 1895 ft 11 kts 261°
2026-05-05 18:14 47.25793 11.34265 1897 ft 12 kts 261°
2026-05-05 18:14 47.25779 11.34133 1894 ft 13 kts 261°
2026-05-05 18:14 47.25773 11.34001 1907 ft 13 kts 277°
2026-05-05 18:14 47.25810 11.33880 1895 ft 14 kts 305°
2026-05-05 18:15 47.25866 11.33765 1900 ft 14 kts 306°
2026-05-05 18:15 47.25922 11.33654 1906 ft 13 kts 306°
2026-05-05 18:15 47.25926 11.33517 1901 ft 14 kts 260°
2026-05-05 18:15 47.25910 11.33370 1898 ft 12 kts 261°
2026-05-05 18:16 47.25872 11.33261 1895 ft 12 kts 234°
2026-05-05 18:16 47.25837 11.33147 1906 ft 12 kts 260°
2026-05-05 18:16 47.25838 11.33076 1894 ft 5 kts 305°
2026-05-05 18:16 47.25876 11.33073 1902 ft 5 kts 43°
2026-05-05 18:17 47.25883 11.33121 1898 ft 5 kts 81°
2026-05-05 18:17 47.25899 11.33264 1902 ft 42 kts 81°
2026-05-05 18:17 47.25989 11.34113 1907 ft 122 kts 81°
2026-05-05 18:17 47.26154 11.35622 2136 ft 162 kts 87°
2026-05-05 18:18 47.26326 11.37223 3118 ft 158 kts 84°
2026-05-05 18:18 47.26481 11.38838 3926 ft 160 kts 84°
2026-05-05 18:18 47.26640 11.40453 4792 ft 157 kts 86°
2026-05-05 18:18 47.26800 11.42037 5651 ft 158 kts 85°
2026-05-05 18:19 47.26964 11.43654 6347 ft 162 kts 85°
2026-05-05 18:19 47.27281 11.45283 7007 ft 169 kts 73°
2026-05-05 18:19 47.27698 11.46903 7715 ft 170 kts 72°
2026-05-05 18:19 47.28154 11.48525 8399 ft 172 kts 69°
2026-05-05 18:20 47.28629 11.50161 9042 ft 178 kts 69°
2026-05-05 18:20 47.29024 11.51906 9636 ft 183 kts 94°
2026-05-05 18:20 47.28611 11.53602 10166 ft 177 kts 142°
2026-05-05 18:20 47.27540 11.54262 10562 ft 170 kts 188°
2026-05-05 18:21 47.26491 11.53509 10748 ft 176 kts 233°
2026-05-05 18:21 47.25985 11.51831 11025 ft 185 kts 252°
2026-05-05 18:21 47.25601 11.49939 11147 ft 204 kts 252°
2026-05-05 18:21 47.25156 11.47863 11289 ft 220 kts 250°
2026-05-05 18:22 47.24605 11.45681 11438 ft 235 kts 248°
2026-05-05 18:22 47.24017 11.43330 11555 ft 255 kts 253°
2026-05-05 18:22 47.23671 11.40667 11721 ft 277 kts 264°
2026-05-05 18:22 47.23727 11.37717 11909 ft 302 kts 277°
2026-05-05 18:23 47.24276 11.34611 12072 ft 326 kts 288°
2026-05-05 18:23 47.25050 11.31404 12521 ft 337 kts 288°
2026-05-05 18:23 47.25833 11.28134 13196 ft 340 kts 288°
2026-05-05 18:23 47.26615 11.24833 13861 ft 342 kts 287°
2026-05-05 18:24 47.27385 11.21555 14490 ft 345 kts 287°
2026-05-05 18:24 47.28170 11.18195 15077 ft 348 kts 286°
2026-05-05 18:24 47.28957 11.14807 15662 ft 351 kts 286°
2026-05-05 18:24 47.29752 11.11389 16259 ft 354 kts 286°
2026-05-05 18:25 47.30560 11.07913 16885 ft 357 kts 286°
2026-05-05 18:25 47.31087 11.05642 17284 ft 359 kts 286°
2026-05-05 18:25 47.32170 11.00962 18105 ft 363 kts 286°
2026-05-05 18:25 47.32987 10.97427 18648 ft 366 kts 285°
2026-05-05 18:26 47.33809 10.93862 19159 ft 369 kts 286°
2026-05-05 18:26 47.34638 10.90266 19629 ft 372 kts 285°
2026-05-05 18:26 47.35472 10.86632 20129 ft 376 kts 285°
2026-05-05 18:26 47.36311 10.82970 20668 ft 378 kts 285°
2026-05-05 18:27 47.37159 10.79275 21196 ft 381 kts 285°
2026-05-05 18:27 47.38128 10.75611 21710 ft 388 kts 292°
2026-05-05 18:27 47.39566 10.72193 22188 ft 397 kts 303°
2026-05-05 18:27 47.41476 10.69187 22639 ft 407 kts 315°
2026-05-05 18:28 47.46159 10.64263 23546 ft 417 kts 321°
2026-05-05 18:28 47.48558 10.61817 23960 ft 420 kts 320°
2026-05-05 18:28 47.50964 10.59355 24388 ft 422 kts 320°
2026-05-05 18:29 47.53376 10.56874 24750 ft 425 kts 320°
2026-05-05 18:29 47.55812 10.54362 24845 ft 427 kts 320°
2026-05-05 18:29 47.58255 10.51845 24863 ft 428 kts 320°
2026-05-05 18:29 47.60697 10.49332 24867 ft 427 kts 321°
2026-05-05 18:30 47.63138 10.46824 24862 ft 427 kts 321°
2026-05-05 18:30 47.65575 10.44313 24871 ft 427 kts 321°
2026-05-05 18:30 47.68009 10.41800 24865 ft 427 kts 321°
2026-05-05 18:30 47.70443 10.39283 24865 ft 427 kts 321°
2026-05-05 18:31 47.72877 10.36762 24867 ft 426 kts 321°
2026-05-05 18:31 47.75298 10.34209 24865 ft 426 kts 319°
2026-05-05 18:31 47.77644 10.31539 24909 ft 427 kts 317°
2026-05-05 18:31 47.79950 10.28739 25283 ft 428 kts 316°
2026-05-05 18:32 47.82232 10.25875 25647 ft 430 kts 316°
2026-05-05 18:32 47.84518 10.22981 26003 ft 433 kts 316°
2026-05-05 18:32 47.86820 10.20088 26390 ft 434 kts 316°
2026-05-05 18:32 47.89143 10.17207 26825 ft 435 kts 317°
2026-05-05 18:33 47.91477 10.14344 27293 ft 434 kts 317°
2026-05-05 18:33 47.93779 10.11540 28214 ft 418 kts 317°
2026-05-05 18:33 47.96000 10.08844 29225 ft 406 kts 317°
2026-05-05 18:33 47.98172 10.06194 29765 ft 404 kts 316°
2026-05-05 18:34 48.00342 10.03526 30091 ft 405 kts 316°
2026-05-05 18:34 48.02521 10.00832 30299 ft 408 kts 316°
2026-05-05 18:34 48.04712 9.98119 30522 ft 411 kts 316°
2026-05-05 18:34 48.06914 9.95396 30849 ft 410 kts 316°
2026-05-05 18:35 48.09107 9.92687 31211 ft 409 kts 316°
2026-05-05 18:35 48.11300 9.89978 31550 ft 408 kts 316°
2026-05-05 18:35 48.13481 9.87280 31896 ft 407 kts 315°
2026-05-05 18:35 48.15655 9.84586 32267 ft 405 kts 316°
2026-05-05 18:36 48.17823 9.81896 32624 ft 404 kts 316°
2026-05-05 18:36 48.19985 9.79213 32943 ft 403 kts 316°
2026-05-05 18:36 48.22139 9.76538 33236 ft 402 kts 316°
2026-05-05 18:36 48.24292 9.73865 33556 ft 401 kts 316°
2026-05-05 18:37 48.26439 9.71191 33791 ft 402 kts 316°
2026-05-05 18:37 48.27863 9.69415 33908 ft 403 kts 316°
2026-05-05 18:37 48.30022 9.66711 34026 ft 406 kts 316°
2026-05-05 18:37 48.32198 9.63982 34146 ft 409 kts 316°
2026-05-05 18:38 48.34388 9.61232 34267 ft 412 kts 316°
2026-05-05 18:38 48.36583 9.58450 34388 ft 415 kts 316°
2026-05-05 18:38 48.39944 9.54144 34563 ft 419 kts 316°
2026-05-05 18:39 48.42167 9.51287 34719 ft 422 kts 316°
2026-05-05 18:39 48.44410 9.48404 34832 ft 425 kts 316°
2026-05-05 18:39 48.46661 9.45509 34960 ft 428 kts 316°
2026-05-05 18:39 48.48939 9.42581 35081 ft 431 kts 316°
2026-05-05 18:40 48.51224 9.39643 35205 ft 433 kts 316°
2026-05-05 18:40 48.53524 9.36681 35326 ft 436 kts 316°
2026-05-05 18:40 48.55837 9.33695 35450 ft 439 kts 316°
2026-05-05 18:40 48.58127 9.30734 35572 ft 441 kts 316°
2026-05-05 18:41 48.60496 9.27758 35715 ft 444 kts 321°
2026-05-05 18:41 48.63106 9.25210 35823 ft 450 kts 329°
2026-05-05 18:41 48.68897 9.21265 35836 ft 461 kts 334°
2026-05-05 18:42 48.74791 9.17378 35852 ft 463 kts 334°
2026-05-05 18:42 48.80694 9.13465 35843 ft 463 kts 334°
2026-05-05 18:43 48.86598 9.09530 35835 ft 464 kts 334°
2026-05-05 18:43 48.92490 9.05553 35840 ft 463 kts 333°
2026-05-05 18:44 48.98354 9.01468 35837 ft 463 kts 333°
2026-05-05 18:44 49.04209 8.97361 35829 ft 463 kts 334°
2026-05-05 18:45 49.10030 8.93295 35833 ft 464 kts 334°
2026-05-05 18:45 49.15894 8.89198 35831 ft 464 kts 334°
2026-05-05 18:46 49.21860 8.85441 35839 ft 465 kts 341°
2026-05-05 18:46 49.28029 8.82455 35826 ft 465 kts 341°
2026-05-05 18:47 49.34200 8.79440 35834 ft 466 kts 341°
2026-05-05 18:47 49.40374 8.76411 35843 ft 466 kts 341°
2026-05-05 18:48 49.46550 8.73383 35825 ft 466 kts 341°
2026-05-05 18:48 49.52728 8.70346 35830 ft 466 kts 341°
2026-05-05 18:49 49.58904 8.67314 35839 ft 466 kts 341°
2026-05-05 18:49 49.65057 8.64156 35825 ft 465 kts 334°
2026-05-05 18:50 49.67818 8.61622 35827 ft 461 kts 319°
2026-05-05 18:50 49.70040 8.58117 35821 ft 456 kts 303°
2026-05-05 18:50 49.71581 8.53894 35814 ft 449 kts 288°
2026-05-05 18:50 49.72659 8.49368 35811 ft 449 kts 287°
2026-05-05 18:51 49.74793 8.40279 35810 ft 451 kts 287°
2026-05-05 18:51 49.76931 8.31160 35820 ft 452 kts 287°
2026-05-05 18:52 49.79079 8.22014 35822 ft 452 kts 287°
2026-05-05 18:52 49.81223 8.12864 35830 ft 453 kts 287°
2026-05-05 18:53 49.83356 8.03680 35827 ft 453 kts 287°
2026-05-05 18:53 49.85478 7.94492 35823 ft 453 kts 287°
2026-05-05 18:54 49.87592 7.85297 35821 ft 453 kts 287°
2026-05-05 18:54 49.89702 7.76091 35823 ft 453 kts 287°
2026-05-05 18:55 49.91803 7.66881 35841 ft 453 kts 287°
2026-05-05 18:55 49.93890 7.57661 35827 ft 453 kts 287°
2026-05-05 18:56 49.95975 7.48441 35828 ft 453 kts 287°
2026-05-05 18:56 49.98052 7.39207 35830 ft 453 kts 287°
2026-05-05 18:57 50.00130 7.29960 35850 ft 453 kts 287°
2026-05-05 18:57 50.02199 7.20695 35845 ft 454 kts 287°
2026-05-05 18:58 50.04241 7.11475 35836 ft 454 kts 286°
2026-05-05 18:58 50.06308 7.02120 35813 ft 454 kts 286°
2026-05-05 18:59 50.08339 6.92892 35813 ft 454 kts 286°
2026-05-05 18:59 50.10374 6.83582 35825 ft 454 kts 286°
2026-05-05 19:00 50.12408 6.74271 35812 ft 454 kts 286°
2026-05-05 19:00 50.14436 6.64939 35808 ft 454 kts 286°
2026-05-05 19:01 50.16459 6.55602 35799 ft 455 kts 286°
2026-05-05 19:01 50.18536 6.46291 35794 ft 456 kts 291°
2026-05-05 19:02 50.21641 6.37642 35816 ft 458 kts 299°
2026-05-05 19:02 50.24936 6.29129 35809 ft 458 kts 299°
2026-05-05 19:03 50.28219 6.20582 35819 ft 458 kts 299°
2026-05-05 19:03 50.31503 6.12039 35819 ft 459 kts 299°
2026-05-05 19:04 50.34784 6.03475 35838 ft 459 kts 298°
2026-05-05 19:04 50.38048 5.94874 35850 ft 459 kts 298°
2026-05-05 19:05 50.41305 5.86268 35859 ft 459 kts 298°
2026-05-05 19:05 50.44564 5.77658 35856 ft 459 kts 298°
2026-05-05 19:06 50.47819 5.69036 35857 ft 459 kts 298°
2026-05-05 19:06 50.51063 5.60411 35854 ft 459 kts 298°
2026-05-05 19:07 50.54300 5.51775 35865 ft 458 kts 298°
2026-05-05 19:07 50.57519 5.43133 35872 ft 458 kts 298°
2026-05-05 19:08 50.60735 5.34500 35876 ft 457 kts 298°
2026-05-05 19:08 50.63945 5.25858 35874 ft 457 kts 298°
2026-05-05 19:09 50.67139 5.17209 35874 ft 457 kts 298°
2026-05-05 19:09 50.70327 5.08544 35890 ft 456 kts 298°
2026-05-05 19:10 50.73487 4.99947 35892 ft 456 kts 298°
2026-05-05 19:10 50.76675 4.91234 35890 ft 455 kts 298°
2026-05-05 19:11 50.79808 4.82623 35547 ft 454 kts 297°
2026-05-05 19:11 50.81399 4.78244 35043 ft 455 kts 297°
2026-05-05 19:11 50.82964 4.73940 34279 ft 459 kts 297°
2026-05-05 19:12 50.84564 4.69535 33361 ft 466 kts 297°
2026-05-05 19:12 50.86177 4.65078 32753 ft 464 kts 297°
2026-05-05 19:12 50.87775 4.60662 32188 ft 461 kts 297°
2026-05-05 19:12 50.89361 4.56269 31638 ft 458 kts 297°
2026-05-05 19:13 50.90940 4.51903 31084 ft 455 kts 298°
2026-05-05 19:13 50.92558 4.47600 30545 ft 453 kts 300°
2026-05-05 19:13 50.94206 4.43346 30004 ft 452 kts 300°
2026-05-05 19:13 50.95863 4.39123 29414 ft 450 kts 300°
2026-05-05 19:14 50.97508 4.34933 28889 ft 446 kts 300°
2026-05-05 19:14 50.99138 4.30761 28377 ft 443 kts 300°
2026-05-05 19:14 51.00746 4.26617 27848 ft 439 kts 300°
2026-05-05 19:14 51.02330 4.22504 27343 ft 435 kts 300°
2026-05-05 19:15 51.03892 4.18420 26846 ft 431 kts 300°
2026-05-05 19:15 51.05433 4.14372 26348 ft 426 kts 300°
2026-05-05 19:15 51.06957 4.10358 25882 ft 421 kts 300°
2026-05-05 19:15 51.08492 4.06426 25419 ft 417 kts 304°
2026-05-05 19:16 51.10340 4.02912 24959 ft 413 kts 315°
2026-05-05 19:16 51.12525 3.99992 24518 ft 409 kts 323°
2026-05-05 19:16 51.14805 3.97319 24066 ft 405 kts 323°
2026-05-05 19:16 51.17057 3.94664 23606 ft 401 kts 322°
2026-05-05 19:17 51.19284 3.92025 23108 ft 397 kts 322°
2026-05-05 19:17 51.21557 3.89581 22652 ft 392 kts 331°
2026-05-05 19:17 51.24044 3.87881 22215 ft 387 kts 343°
2026-05-05 19:17 51.26662 3.87002 21758 ft 383 kts 354°
2026-05-05 19:18 51.29309 3.86845 21318 ft 379 kts 359°
2026-05-05 19:18 51.31933 3.86794 20870 ft 376 kts 359°
2026-05-05 19:18 51.34536 3.86735 20428 ft 373 kts 359°
2026-05-05 19:18 51.37121 3.86669 19979 ft 370 kts 359°
2026-05-05 19:19 51.39692 3.86601 19528 ft 368 kts 359°
2026-05-05 19:19 51.42246 3.86534 19084 ft 366 kts 360°
2026-05-05 19:19 51.44783 3.86472 18635 ft 365 kts
2026-05-05 19:19 51.47316 3.86415 18203 ft 363 kts
2026-05-05 19:20 51.49831 3.86358 17727 ft 361 kts
2026-05-05 19:20 51.52330 3.86298 17286 ft 357 kts
2026-05-05 19:20 51.54800 3.86239 16845 ft 353 kts
2026-05-05 19:20 51.57246 3.86178 16433 ft 349 kts
2026-05-05 19:21 51.59664 3.86119 16016 ft 346 kts
2026-05-05 19:21 51.62058 3.86063 15610 ft 343 kts
2026-05-05 19:21 51.64429 3.86003 15208 ft 339 kts
2026-05-05 19:21 51.66782 3.85947 14813 ft 336 kts
2026-05-05 19:22 51.69113 3.85886 14427 ft 333 kts
2026-05-05 19:22 51.70645 3.85847 14171 ft 332 kts
2026-05-05 19:22 51.72943 3.85798 13789 ft 329 kts
2026-05-05 19:22 51.75959 3.85734 13231 ft 326 kts
2026-05-05 19:23 51.77485 3.85725 12970 ft 323 kts
2026-05-05 19:23 51.80385 3.85731 12894 ft 305 kts
2026-05-05 19:23 51.82451 3.85736 12898 ft 289 kts
2026-05-05 19:23 51.84421 3.85735 12819 ft 278 kts
2026-05-05 19:24 51.85709 3.85735 12731 ft 271 kts
2026-05-05 19:24 51.87542 3.85738 12543 ft 264 kts
2026-05-05 19:24 51.89367 3.85740 12250 ft 261 kts
2026-05-05 19:24 51.91171 3.85740 11947 ft 258 kts
2026-05-05 19:25 51.92962 3.85750 11615 ft 256 kts
2026-05-05 19:25 51.94659 3.86483 11281 ft 254 kts 32°
2026-05-05 19:25 51.96066 3.88246 10941 ft 252 kts 41°
2026-05-05 19:25 51.97357 3.90165 10602 ft 251 kts 42°
2026-05-05 19:26 51.98632 3.92098 10243 ft 251 kts 42°
2026-05-05 19:26 51.99903 3.94046 9896 ft 251 kts 42°
2026-05-05 19:26 52.01147 3.95970 9553 ft 250 kts 43°
2026-05-05 19:26 52.02416 3.97927 9185 ft 249 kts 42°
2026-05-05 19:27 52.03650 3.99836 8861 ft 246 kts 43°
2026-05-05 19:27 52.04883 4.01753 8528 ft 245 kts 42°
2026-05-05 19:27 52.06111 4.03659 8185 ft 244 kts 43°
2026-05-05 19:27 52.07051 4.05904 7872 ft 243 kts 71°
2026-05-05 19:28 52.07373 4.08600 7547 ft 243 kts 81°
2026-05-05 19:28 52.07557 4.11333 7222 ft 243 kts 82°
2026-05-05 19:28 52.07725 4.14056 6898 ft 241 kts 83°
2026-05-05 19:28 52.07883 4.16762 6599 ft 240 kts 82°
2026-05-05 19:29 52.08032 4.19466 6142 ft 245 kts 82°
2026-05-05 19:29 52.08192 4.22184 5932 ft 237 kts 79°
2026-05-05 19:29 52.08434 4.24810 5672 ft 233 kts 81°
2026-05-05 19:29 52.08582 4.27415 5414 ft 229 kts 80°
2026-05-05 19:30 52.09097 4.29782 5137 ft 221 kts 50°
2026-05-05 19:30 52.10316 4.31212 4796 ft 219 kts 26°
2026-05-05 19:30 52.11666 4.32320 4546 ft 214 kts 28°
2026-05-05 19:30 52.12908 4.33502 4388 ft 201 kts 39°
2026-05-05 19:31 52.13856 4.35134 4291 ft 197 kts 51°
2026-05-05 19:31 52.14645 4.36962 4188 ft 198 kts 55°
2026-05-05 19:31 52.15392 4.38838 4084 ft 196 kts 55°
2026-05-05 19:31 52.16125 4.40709 3981 ft 195 kts 56°
2026-05-05 19:32 52.16853 4.42579 3884 ft 197 kts 56°
2026-05-05 19:32 52.17582 4.44449 3772 ft 195 kts 56°
2026-05-05 19:32 52.18306 4.46311 3666 ft 194 kts 56°
2026-05-05 19:32 52.19011 4.48125 3575 ft 182 kts 56°
2026-05-05 19:33 52.19657 4.49788 3477 ft 166 kts 56°
2026-05-05 19:33 52.20271 4.51368 3377 ft 167 kts 54°
2026-05-05 19:33 52.20895 4.52976 3278 ft 168 kts 55°
2026-05-05 19:33 52.21519 4.54585 3177 ft 168 kts 55°
2026-05-05 19:34 52.22142 4.56193 2973 ft 168 kts 55°
2026-05-05 19:34 52.22764 4.57798 2626 ft 167 kts 55°
2026-05-05 19:34 52.23383 4.59398 2207 ft 168 kts 56°
2026-05-05 19:35 52.24586 4.62510 1646 ft 151 kts 55°
2026-05-05 19:35 52.25120 4.63893 1453 ft 139 kts 55°
2026-05-05 19:35 52.25631 4.65216 1244 ft 137 kts 55°
2026-05-05 19:35 52.26134 4.66520 1052 ft 135 kts 55°
2026-05-05 19:36 52.26631 4.67805 868 ft 134 kts 54°
2026-05-05 19:36 52.27128 4.69096 692 ft 134 kts 54°
2026-05-05 19:36 52.27625 4.70384 511 ft 135 kts 54°
2026-05-05 19:36 52.28120 4.71670 330 ft 134 kts 53°
2026-05-05 19:37 52.28615 4.72955 151 ft 134 kts 54°
2026-05-05 19:37 52.29106 4.74231 5 ft 128 kts 57°
2026-05-05 19:37 52.29493 4.75240 -2 ft 76 kts 58°
2026-05-05 19:37 52.29647 4.75636 -1 ft 20 kts 57°
2026-05-05 19:38 52.29735 4.75766 -2 ft 16 kts 29°
2026-05-05 19:38 52.29828 4.75843 -1 ft 14 kts 27°
2026-05-05 19:38 52.29916 4.75918 -1 ft 14 kts 27°
2026-05-05 19:38 52.29997 4.76005 -1 ft 14 kts 50°
2026-05-05 19:39 52.30049 4.76139 -1 ft 14 kts 58°
2026-05-05 19:39 52.30101 4.76274 -1 ft 14 kts 58°
2026-05-05 19:39 52.30152 4.76407 -1 ft 14 kts 57°
2026-05-05 19:39 52.30203 4.76540 -1 ft 14 kts 58°
2026-05-05 19:40 52.30254 4.76672 -1 ft 14 kts 58°
2026-05-05 19:40 52.30305 4.76806 -1 ft 14 kts 58°
2026-05-05 19:40 52.30357 4.76940 -1 ft 14 kts 58°
2026-05-05 19:40 52.30403 4.77037 -1 ft 9 kts 29°
2026-05-05 19:41 52.30459 4.77019 -1 ft 8 kts 327°
2026-05-05 19:41 52.30508 4.76968 -1 ft 8 kts 328°
2026-05-05 19:41 52.30555 4.76920 -1 ft 8 kts 328°
2026-05-05 19:41 52.30590 4.76879 -1 ft 6 kts 314°
2026-05-05 19:42 52.30608 4.76825 -1 ft 5 kts 296°
2026-05-05 19:42 52.30631 4.76775 -1 ft 4 kts 293°
2026-05-05 19:42 52.30619 4.76748 -1 ft 3 kts 224°
2026-05-05 19:42 52.30597 4.76722 -1 ft 4 kts 215°
2026-05-05 19:43 52.30579 4.76701 -1 ft 2 kts 215°
2026-05-05 19:43 52.30575 4.76696 -1 ft 0 kts 215°